www.pogodaiklimat.ru

Погода и климат >> Архив погоды >> Мозамбик >> Мапуту


ПОГОДА в Мапуту

  • Прогноз погоды в Мапуту
  • Монитор погоды в Мапуту

АРХИВ ПОГОДЫ в Мапуту

Время (UTC), дата Ветер
(напр.,м/с)
 
Видим.   Явления Облачность Т
(С)
Тd
(С)
f
(%)
Тe
(С)
Тes
(С)
Комфортность P
(гПа)
Po
(гПа)
Тmin
(С)
Tmax
(С)
R
(мм)
R24
(мм)
S
(см)
09 11.07 ЮЗ 4 20 км 3/3 600 м
[Sc]
+22.9 +18.1 74 +28 +33 душно 1022.7 1017.5
12 11.07 В 2 7000 м мгла {туман} ясно +29.9 +18.2 49 +34 +41 очень
душно
1019.5 1014.5
15 11.07 В 4 9000 м мгла {туман} ясно +24.2 +15.8 59 +27 +27 жарко 1019.7 1014.6
18 11.07 С 4 20 км ясно +18.2 +14.8 81 +18 +18 1019.8 1014.6 +30.1
12 12.07 В 3 20 км ясно +31.8 +11.1 28 +32 +37 жарко 1018.5 1013.5
15 12.07 ЮВ 8 20 км ясно +23.3 +17.7 71 +29 +29 душно 1021.4 1016.2
18 12.07 Ю 5 20 км 4/4 600 м
[Sc]
+22.2 +14.5 62 +26 +26 душно 1021.8 1016.6 +36.1
00 13.07 20 км н/о +18.6 +14.1 75 +19 +19 1025.5 1020.2
03 13.07 Ю 5 20 км 6/6 600 м
[Sc]
+18.3 +14.1 76 +18 +18 1025.5 1020.2
06 13.07 Ю 3 20 км 1/1 600 м
[Sc]
+19.5 +14.8 74 +21 +23 комфорт 1027.2 1021.9 +16.9
09 13.07 Ю 3 20 км 4/3 600 м
[Cu med, cong Ac trans]
+26.2 +14.2 48 +29 +34 жарко 1027.0 1021.9
12 13.07 В 4 20 км 3/3 600 м
[Cu hum]
+27.7 +12.7 40 +29 +33 жарко 1024.0 1024.0
15 13.07 СВ 5 20 км ясно +23.5 +15.3 60 +26 +26 жарко 1023.2 1018.0
18 13.07 СВ 3 20 км ясно +19.1 +15.9 82 +27.8
21 13.07 нст 1 20 км ясно +17.0 +15.2 89 +18 +18 1024.9 1019.6
03 14.07 штиль 0 20 км ясно +13.4 +12.1 92 +13 +13 1024.5 1019.1
06 14.07 СЗ 2 3000 м дымка {туман} 3/3 600 м
[Sc]
+17.1 +15.9 93 +18 +19 1025.7 1020.4 +12.8
09 14.07 С 4 8000 м мгла {туман} 4/4 600 м
[Sc]
+22.7 +17.4 72 +28 +32 душно 1026.0 1020.8
12 14.07 СВ 6 20 км {туман} 4/4 600 м
[Cu med, cong]
+25.6 +17.4 61 +30 +31 душно 1022.6 1017.5
15 14.07 СВ 5 20 км ясно +22.7 +15.9 65 +27 +27 душно 1022.4 1017.2
18 14.07 СВ 3 20 км ясно +19.0 +16.8 87 +21 +21 комфорт 1023.3 1018.0 +28.2
21 14.07 СВ 2 20 км ясно +16.4 +14.7 90 +16 +16 1023.7 1018.4
03 15.07 нст 1 200 м туман местами 1/1 600 м
[]
+15.1 +14.1 94 +16 +16 1024.0 1018.7
06 15.07 С 3 20 км дымка ясно +17.8 +16.7 93 +18 +19 1025.3 1020.0 +13.4
09 15.07 С 7 20 км ясно +27.0 +14.3 46 +29 +32 жарко 1024.0 1018.9
15 15.07 СВ 7 8000 м дым 3/3 600 м
[Cu hum]
+24.2 +16.6 63 +28 +28 душно 1021.6 1016.4
18 15.07 СВ 6 20 км ясно +21.1 +18.1 83 +25 +25 комфорт 1023.0 1017.8 +30.2
21 15.07 СВ 4 20 км ясно +19.9 +17.5 86 +23 +23 комфорт 1024.5 1019.3
00 16.07 С 2 20 км ясно +16.1 +14.4 90 +16 +16 1024.7 1019.4
03 16.07 нст 1 8000 м дымка ясно +14.9 +13.7 93 +15 +15 1024.9 1019.6
15 16.07 СВ 6 20 км ясно +23.6 +17.7 70 +28 +28 душно 1023.5 1018.3
18 16.07 СВ 6 20 км ясно +21.1 +18.2 84 +25 +25 комфорт 1024.6 1019.4 +30.6
21 16.07 С 4 20 км ясно +19.3 +16.8 85 +21 +21 комфорт 1025.1 1019.8
00 17.07 З 2 20 км ясно +15.9 +14.0 88 +16 +16 1025.1 1019.8
03 17.07 штиль 0 20 км ясно +14.2 +13.0 92 +14 +14 1024.5 1019.2
06 17.07 С 2 9000 м дымка {туман} ясно +16.1 +15.1 94 +16 +18 1025.7 1020.4 +12.8
09 17.07 СЗ 7 20 км ясно +26.2 +12.5 43 +28 +31 жарко 1024.6 1019.5
12 17.07 СЗ 5 20 км ясно +21.1 +8.3 44 +22 +26 комфорт 1021.2 1016.0
00 18.07 С 3 20 км ясно +16.9 +6.1 49 +17 +17 1020.9 1015.6
03 18.07 СЗ 4 20 км ясно +16.1 +5.4 49 +16 +16 1020.3 1015.0
06 18.07 С 5 20 км ясно +17.7 +4.7 42 +17 +18 1020.4 1015.1 +14.2

 

Местоположение метеостанции Мапуту (Мозамбик): широта -25.91 долгота 32.57 высота над уровнем моря 44 м.

В архиве по умолчанию представлена погода в Мапуту за последнюю неделю. Архивные данные за месяц целиком и за предыдущие месяцы, начиная с января 2011 года, Вы можете получить, выбрав интересующий диапазон дат из раскрывающегося списка и нажав кнопку "Ввод!".


*Определитесь, кто Вы:
робот инопланетянин человек

Внимание! Время в таблицах - всемирное. Для получения местного времени необходимо прибавить поправку, которая равна 2 ч.

Смотрите также архив погоды в соседних городах и на ближайших метеорологических станциях:

Погода в Чангалане (Мозамбик) (57 км)
Погода в Коматидрааи (Южная Африка) (81 км)
Погода в Ситеки (Свазиленд) (85 км)
Погода в Майиване (Свазиленд) (106 км)
Погода в Биг-Бенде (Свазиленд) (121 км)
Погода на Дамбе Lubovane (Свазиленд) (127 км)
Погода в Ндзевейне (Свазиленд) (132 км)
Погода в Пиггс-Пике (Свазиленд) (132 км)
Погода в Скукузе (Южная Африка) (142 км)
Погода в Шаи-Шаи (Мозамбик) (143 км)

Пояснения к столбцам:

Ветер - указаны скорость ветра в м/с - средняя за 10 мин, порывы в срок и между сроками (в фигурных скобках) и направление, откуда дует ветер: С - северный, СВ - северо-восточный, В - восточный, ЮВ - юго-восточный, Ю - южный, ЮЗ - юго-западный, З - западный, СЗ - северо-западный.
Видимость - горизонтальная дальность видимости в метрах или километрах. При видимости от 1 до 10 км при отсутствии осадков обычно наблюдается дымка, при ухудшении видимости до 1 км и менее - туман. В сухую погоду видимость может ухудшаться дымом, пылью или мглою.
Явления - указаны атмосферные явления, наблюдавшиеся в срок или в последний час перед сроком; фигурными скобками обозначены явления, наблюдавшиеся между сроками (за 1-3 часа до срока); квадратными скобками обозначены град или гололедные отложения с указанием их диаметра в мм.
Облачность - указаны через наклонную черту общая и нижняя облачность в баллах и высота нижней границы облаков в метрах; квадратными скобками обозначены формы облаков: Ci - перистые, Cs - перисто-слоистые, Cc - перисто-кучевые, Ac - высококучевые, As - высокослоистые, Sc - слоисто-кучевые, Ns - слоисто-дождевые, Cu - кучевые, Cb - кучево-дождевые. Подробнее классификацию облаков см. в Атласе облаков (PDF).
T - Температура воздуха - температура, измеренная на высоте 2 м над землей.
Td - Температура точки росы - температура, при понижении до которой содержащийся в воздухе водяной пар достигнет насыщения.
f - Относительная влажность воздуха - влажноcть воздуха, измеренная на высоте 2 м над землей.
Te - Эффективная температура - температура, которую ощущает одетый по сезону человек в тени. Характеристика душности погоды. При расчете учитывается влияние влажности воздуха и скорости ветра на теплоощущения человека.
Tes - Эффективная температура на солнце - температура, которую ощущает человек, с поправкой на солнечный нагрев. Характеристика знойности погоды. Зависит от высоты солнца над горизонтом, облачности и скорости ветра. Ночью, в пасмурную погоду, а также при ветре 12 м/с и более поправка равна нулю.
P - Атмосферное давление - приведенное к уровню моря атмосферное давление.
Po - Атмосферное давление - измеренное на уровне метеостанции атмосферное давление.
Tmin - Минимальная температура - минимум температуры воздуха на высоте 2 м над землей.
Tmax - Максимальная температура - максимум температуры воздуха на высоте 2 м над землей.
R - Количество осадков - Количество выпавших осадков за период времени, мм. При наведении курсора мыши на число - период времени, за который выпало указанное количество осадков.
R24 - Количество осадков - Количество выпавших осадков за 24 часа, мм.
S - Снежный покров - Высота снежного покрова, см. При наведении курсора мыши на число - состояние снежного покрова и степень покрытия местности в баллах.